Year,Month,Day,Hour,Minute,Value (Times are PST for temperature in C)
2006,09,25,00,00,11.10
2006,09,25,00,01,11.10
2006,09,25,00,02,11.10
2006,09,25,00,03,11.10
2006,09,25,00,04,11.00
2006,09,25,00,05,11.00
2006,09,25,00,06,11.00
2006,09,25,00,07,10.90
2006,09,25,00,08,10.90
2006,09,25,00,09,10.90
2006,09,25,00,10,10.90
2006,09,25,00,11,11.00
2006,09,25,00,12,11.00
2006,09,25,00,13,11.00
2006,09,25,00,14,11.00
2006,09,25,00,15,11.00
2006,09,25,00,16,11.00
2006,09,25,00,17,11.00
2006,09,25,00,18,10.90
2006,09,25,00,19,10.90
2006,09,25,00,20,10.90
2006,09,25,00,21,10.90
2006,09,25,00,22,10.90
2006,09,25,00,23,10.90
2006,09,25,00,24,10.80
2006,09,25,00,25,10.80
2006,09,25,00,26,10.80
2006,09,25,00,27,10.80
2006,09,25,00,28,10.80
2006,09,25,00,29,10.80
2006,09,25,00,30,10.80
2006,09,25,00,31,10.70
2006,09,25,00,32,10.70
2006,09,25,00,33,10.70
2006,09,25,00,34,10.70
2006,09,25,00,35,10.70
2006,09,25,00,36,10.60
2006,09,25,00,37,10.60
2006,09,25,00,38,10.60
2006,09,25,00,39,10.50
2006,09,25,00,40,10.50
2006,09,25,00,41,10.50
2006,09,25,00,42,10.40
2006,09,25,00,43,10.40
2006,09,25,00,44,10.40
2006,09,25,00,45,10.40
2006,09,25,00,46,10.50
2006,09,25,00,47,10.50
2006,09,25,00,48,10.60
2006,09,25,00,49,10.60
2006,09,25,00,50,10.60
2006,09,25,00,51,10.60
2006,09,25,00,52,10.60
2006,09,25,00,53,10.60
2006,09,25,00,54,10.60
2006,09,25,00,55,10.60
2006,09,25,00,56,10.60
2006,09,25,00,57,10.60
2006,09,25,00,58,10.60
2006,09,25,00,59,10.60
2006,09,25,01,00,10.60
2006,09,25,01,01,10.70
2006,09,25,01,02,10.70
2006,09,25,01,03,10.70
2006,09,25,01,04,10.80
2006,09,25,01,05,10.80
2006,09,25,01,06,10.80
2006,09,25,01,07,10.80
2006,09,25,01,08,10.90
2006,09,25,01,09,10.90
2006,09,25,01,10,10.90
2006,09,25,01,11,10.90
2006,09,25,01,12,10.90
2006,09,25,01,13,11.00
2006,09,25,01,14,11.00
2006,09,25,01,15,11.00
2006,09,25,01,16,11.10
2006,09,25,01,17,11.00
2006,09,25,01,18,11.00
2006,09,25,01,19,11.00
2006,09,25,01,20,10.90
2006,09,25,01,21,10.80
2006,09,25,01,22,10.80
2006,09,25,01,23,10.80
2006,09,25,01,24,10.80
2006,09,25,01,25,10.70
2006,09,25,01,26,10.70
2006,09,25,01,27,10.70
2006,09,25,01,28,10.70
2006,09,25,01,29,10.70
2006,09,25,01,30,10.70
2006,09,25,01,31,10.70
2006,09,25,01,32,10.70
2006,09,25,01,33,10.70
2006,09,25,01,34,10.80
2006,09,25,01,35,10.80
2006,09,25,01,36,10.80
2006,09,25,01,37,10.90
2006,09,25,01,38,10.90
2006,09,25,01,39,10.90
2006,09,25,01,40,11.00
2006,09,25,01,41,11.00
2006,09,25,01,42,11.10
2006,09,25,01,43,11.10
2006,09,25,01,44,11.10
2006,09,25,01,45,11.20
2006,09,25,01,46,11.20
2006,09,25,01,47,11.30
2006,09,25,01,48,11.30
2006,09,25,01,49,11.30
2006,09,25,01,50,11.40
2006,09,25,01,51,11.40
2006,09,25,01,52,11.40
2006,09,25,01,53,11.50
2006,09,25,01,54,11.60
2006,09,25,01,55,11.70
2006,09,25,01,56,11.70
2006,09,25,01,57,11.80
2006,09,25,01,58,11.80
2006,09,25,01,59,11.80
2006,09,25,02,00,11.90
2006,09,25,02,01,11.90
2006,09,25,02,02,11.90
2006,09,25,02,03,12.00
2006,09,25,02,04,12.00
2006,09,25,02,05,12.00
2006,09,25,02,06,12.10
2006,09,25,02,07,12.10
2006,09,25,02,08,12.10
2006,09,25,02,09,12.10
2006,09,25,02,10,12.10
2006,09,25,02,11,12.20
2006,09,25,02,12,12.20
2006,09,25,02,13,12.20
2006,09,25,02,14,12.20
2006,09,25,02,15,12.20
2006,09,25,02,16,12.20
2006,09,25,02,17,12.20
2006,09,25,02,18,12.20
2006,09,25,02,19,12.20
2006,09,25,02,20,12.20
2006,09,25,02,21,12.20
2006,09,25,02,22,12.20
2006,09,25,02,23,12.20
2006,09,25,02,24,12.20
2006,09,25,02,25,12.20
2006,09,25,02,26,12.20
2006,09,25,02,27,12.20
2006,09,25,02,28,12.20
2006,09,25,02,29,12.20
2006,09,25,02,30,12.20
2006,09,25,02,31,12.20
2006,09,25,02,32,12.20
2006,09,25,02,33,12.20
2006,09,25,02,34,12.20
2006,09,25,02,35,12.20
2006,09,25,02,36,12.20
2006,09,25,02,37,12.20
2006,09,25,02,38,12.20
2006,09,25,02,39,12.20
2006,09,25,02,40,12.20
2006,09,25,02,41,12.20
2006,09,25,02,42,12.20
2006,09,25,02,43,12.20
2006,09,25,02,44,12.20
2006,09,25,02,45,12.20
2006,09,25,02,46,12.30
2006,09,25,02,47,12.30
2006,09,25,02,48,12.30
2006,09,25,02,49,12.40
2006,09,25,02,50,12.40
2006,09,25,02,51,12.40
2006,09,25,02,52,12.50
2006,09,25,02,53,12.50
2006,09,25,02,54,12.60
2006,09,25,02,55,12.60
2006,09,25,02,56,12.70
2006,09,25,02,57,12.70
2006,09,25,02,58,12.70
2006,09,25,02,59,12.80
2006,09,25,03,00,12.80
2006,09,25,03,01,12.80
2006,09,25,03,02,12.80
2006,09,25,03,03,12.80
2006,09,25,03,04,12.80
2006,09,25,03,05,12.80
2006,09,25,03,06,12.90
2006,09,25,03,07,12.90
2006,09,25,03,08,12.90
2006,09,25,03,09,12.90
2006,09,25,03,10,12.90
2006,09,25,03,11,12.90
2006,09,25,03,12,12.90
2006,09,25,03,13,13.00
2006,09,25,03,14,13.00
2006,09,25,03,15,13.00
2006,09,25,03,16,13.00
2006,09,25,03,17,13.00
2006,09,25,03,18,13.00
2006,09,25,03,19,13.00
2006,09,25,03,20,13.00
2006,09,25,03,21,13.00
2006,09,25,03,22,13.10
2006,09,25,03,23,13.10
2006,09,25,03,24,13.10
2006,09,25,03,25,13.10
2006,09,25,03,26,13.10
2006,09,25,03,27,13.10
2006,09,25,03,28,13.10
2006,09,25,03,29,13.10
2006,09,25,03,30,13.20
2006,09,25,03,31,13.20
2006,09,25,03,32,13.20
2006,09,25,03,33,13.10
2006,09,25,03,34,13.10
2006,09,25,03,35,13.10
2006,09,25,03,36,13.10
2006,09,25,03,37,13.10
2006,09,25,03,38,13.10
2006,09,25,03,39,13.10
2006,09,25,03,40,13.10
2006,09,25,03,41,13.10
2006,09,25,03,42,13.10
2006,09,25,03,43,13.10
2006,09,25,03,44,13.10
2006,09,25,03,45,13.10
2006,09,25,03,46,13.10
2006,09,25,03,47,13.10
2006,09,25,03,48,13.20
2006,09,25,03,49,13.20
2006,09,25,03,50,13.20
2006,09,25,03,51,13.20
2006,09,25,03,52,13.20
2006,09,25,03,53,13.20
2006,09,25,03,54,13.20
2006,09,25,03,55,13.30
2006,09,25,03,56,13.30
2006,09,25,03,57,13.30
2006,09,25,03,58,13.30
2006,09,25,03,59,13.30
2006,09,25,04,00,13.20
2006,09,25,04,01,13.20
2006,09,25,04,02,13.20
2006,09,25,04,03,13.10
2006,09,25,04,04,13.10
2006,09,25,04,05,13.10
2006,09,25,04,06,13.00
2006,09,25,04,07,13.00
2006,09,25,04,08,13.00
2006,09,25,04,09,12.90
2006,09,25,04,10,12.90
2006,09,25,04,11,12.90
2006,09,25,04,12,12.80
2006,09,25,04,13,12.80
2006,09,25,04,14,12.80
2006,09,25,04,15,12.80
2006,09,25,04,16,12.80
2006,09,25,04,17,12.70
2006,09,25,04,18,12.70
2006,09,25,04,19,12.70
2006,09,25,04,20,12.60
2006,09,25,04,21,12.60
2006,09,25,04,22,12.60
2006,09,25,04,23,12.60
2006,09,25,04,24,12.60
2006,09,25,04,25,12.60
2006,09,25,04,26,12.60
2006,09,25,04,27,12.60
2006,09,25,04,28,12.60
2006,09,25,04,29,12.60
2006,09,25,04,30,12.60
2006,09,25,04,31,12.60
2006,09,25,04,32,12.60
2006,09,25,04,33,12.60
2006,09,25,04,34,12.60
2006,09,25,04,35,12.60
2006,09,25,04,36,12.60
2006,09,25,04,37,12.60
2006,09,25,04,38,12.60
2006,09,25,04,39,12.60
2006,09,25,04,40,12.60
2006,09,25,04,41,12.70
2006,09,25,04,42,12.70
2006,09,25,04,43,12.70
2006,09,25,04,44,12.70
2006,09,25,04,45,12.70
2006,09,25,04,46,12.70
2006,09,25,04,47,12.70
2006,09,25,04,48,12.70
2006,09,25,04,49,12.70
2006,09,25,04,50,12.70
2006,09,25,04,51,12.70
2006,09,25,04,52,12.70
2006,09,25,04,53,12.70
2006,09,25,04,54,12.70
2006,09,25,04,55,12.70
2006,09,25,04,56,12.70
2006,09,25,04,57,12.70
2006,09,25,04,58,12.70
2006,09,25,04,59,12.70
2006,09,25,05,00,12.70
2006,09,25,05,01,12.70
2006,09,25,05,02,12.70
2006,09,25,05,03,12.60
2006,09,25,05,04,12.60
2006,09,25,05,05,12.50
2006,09,25,05,06,12.40
2006,09,25,05,07,12.30
2006,09,25,05,08,12.30
2006,09,25,05,09,12.20
2006,09,25,05,10,12.20
2006,09,25,05,11,12.10
2006,09,25,05,12,12.10
2006,09,25,05,13,12.10
2006,09,25,05,14,12.10
2006,09,25,05,15,12.00
2006,09,25,05,16,12.00
2006,09,25,05,17,12.00
2006,09,25,05,18,11.90
2006,09,25,05,19,11.90
2006,09,25,05,20,11.90
2006,09,25,05,21,11.90
2006,09,25,05,22,11.80
2006,09,25,05,23,11.80
2006,09,25,05,24,11.70
2006,09,25,05,25,11.70
2006,09,25,05,26,11.70
2006,09,25,05,27,11.60
2006,09,25,05,28,11.60
2006,09,25,05,29,11.50
2006,09,25,05,30,11.50
2006,09,25,05,31,11.40
2006,09,25,05,32,11.40
2006,09,25,05,33,11.30
2006,09,25,05,34,11.30
2006,09,25,05,35,11.30
2006,09,25,05,36,11.20
2006,09,25,05,37,11.10
2006,09,25,05,38,11.10
2006,09,25,05,39,11.10
2006,09,25,05,40,11.00
2006,09,25,05,41,10.90
2006,09,25,05,42,10.90
2006,09,25,05,43,10.90
2006,09,25,05,44,10.90
2006,09,25,05,45,10.80
2006,09,25,05,46,10.80
2006,09,25,05,47,10.80
2006,09,25,05,48,10.80
2006,09,25,05,49,10.70
2006,09,25,05,50,10.70
2006,09,25,05,51,10.70
2006,09,25,05,52,10.70
2006,09,25,05,53,10.70
2006,09,25,05,54,10.70
2006,09,25,05,55,10.70
2006,09,25,05,56,10.60
2006,09,25,05,57,10.70
2006,09,25,05,58,10.70
2006,09,25,05,59,10.70
2006,09,25,06,00,10.60
2006,09,25,06,01,10.60
2006,09,25,06,02,10.60
2006,09,25,06,03,10.60
2006,09,25,06,04,10.60
2006,09,25,06,05,10.50
2006,09,25,06,06,10.50
2006,09,25,06,07,10.50
2006,09,25,06,08,10.40
2006,09,25,06,09,10.40
2006,09,25,06,10,10.30
2006,09,25,06,11,10.30
2006,09,25,06,12,10.30
2006,09,25,06,13,10.30
2006,09,25,06,14,10.30
2006,09,25,06,15,10.30
2006,09,25,06,16,10.30
2006,09,25,06,17,10.30
2006,09,25,06,18,10.40
2006,09,25,06,19,10.40
2006,09,25,06,20,10.40
2006,09,25,06,21,10.40
2006,09,25,06,22,10.40
2006,09,25,06,23,10.40
2006,09,25,06,24,10.40
2006,09,25,06,25,10.40
2006,09,25,06,26,10.40
2006,09,25,06,27,10.40
2006,09,25,06,28,10.40
2006,09,25,06,29,10.30
2006,09,25,06,30,10.30
2006,09,25,06,31,10.30
2006,09,25,06,32,10.20
2006,09,25,06,33,10.20
2006,09,25,06,34,10.10
2006,09,25,06,35,10.10
2006,09,25,06,36,10.10
2006,09,25,06,37,10.00
2006,09,25,06,38,10.00
2006,09,25,06,39,10.00
2006,09,25,06,40,10.00
2006,09,25,06,41,9.90
2006,09,25,06,42,9.90
2006,09,25,06,43,9.90
2006,09,25,06,44,9.80
2006,09,25,06,45,9.80
2006,09,25,06,46,9.80
2006,09,25,06,47,9.80
2006,09,25,06,48,9.80
2006,09,25,06,49,9.70
2006,09,25,06,50,9.70
2006,09,25,06,51,9.70
2006,09,25,06,52,9.70
2006,09,25,06,53,9.70
2006,09,25,06,54,9.70
2006,09,25,06,55,9.60
2006,09,25,06,56,9.60
2006,09,25,06,57,9.60
2006,09,25,06,58,9.60
2006,09,25,06,59,9.60
2006,09,25,07,00,9.60
2006,09,25,07,01,9.60
2006,09,25,07,02,9.60
2006,09,25,07,03,9.60
2006,09,25,07,04,9.60
2006,09,25,07,05,9.50
2006,09,25,07,06,9.50
2006,09,25,07,07,9.50
2006,09,25,07,08,9.40
2006,09,25,07,09,9.40
2006,09,25,07,10,9.40
2006,09,25,07,11,9.40
2006,09,25,07,12,9.40
2006,09,25,07,13,9.40
2006,09,25,07,14,9.40
2006,09,25,07,15,9.30
2006,09,25,07,16,9.30
2006,09,25,07,17,9.30
2006,09,25,07,18,9.30
2006,09,25,07,19,9.30
2006,09,25,07,20,9.30
2006,09,25,07,21,9.30
2006,09,25,07,22,9.30
2006,09,25,07,23,9.30
2006,09,25,07,24,9.30
2006,09,25,07,25,9.30
2006,09,25,07,26,9.30
2006,09,25,07,27,9.30
2006,09,25,07,28,9.30
2006,09,25,07,29,9.30
2006,09,25,07,30,9.30
2006,09,25,07,31,9.30
2006,09,25,07,32,9.30
2006,09,25,07,33,9.30
2006,09,25,07,34,9.30
2006,09,25,07,35,9.30
2006,09,25,07,36,9.30
2006,09,25,07,37,9.30
2006,09,25,07,38,9.30
2006,09,25,07,39,9.40
2006,09,25,07,40,9.40
2006,09,25,07,41,9.40
2006,09,25,07,42,9.40
2006,09,25,07,43,9.50
2006,09,25,07,44,9.60
2006,09,25,07,45,9.70
2006,09,25,07,46,9.80
2006,09,25,07,47,9.90
2006,09,25,07,48,10.00
2006,09,25,07,49,10.10
2006,09,25,07,50,10.10
2006,09,25,07,51,10.20
2006,09,25,07,52,10.20
2006,09,25,07,53,10.20
2006,09,25,07,54,10.20
2006,09,25,07,55,10.20
2006,09,25,07,56,10.20
2006,09,25,07,57,10.30
2006,09,25,07,58,10.30
2006,09,25,07,59,10.30
2006,09,25,08,00,10.40
2006,09,25,08,01,10.40
2006,09,25,08,02,10.40
2006,09,25,08,03,10.50
2006,09,25,08,04,10.50
2006,09,25,08,05,10.60
2006,09,25,08,06,10.70
2006,09,25,08,07,10.70
2006,09,25,08,08,10.80
2006,09,25,08,09,10.90
2006,09,25,08,10,11.00
2006,09,25,08,11,11.00
2006,09,25,08,12,11.10
2006,09,25,08,13,11.20
2006,09,25,08,14,11.20
2006,09,25,08,15,11.30
2006,09,25,08,16,11.40
2006,09,25,08,17,11.60
2006,09,25,08,18,11.70
2006,09,25,08,19,11.80
2006,09,25,08,20,12.00
2006,09,25,08,21,12.10
2006,09,25,08,22,12.20
2006,09,25,08,23,12.30
2006,09,25,08,24,12.30
2006,09,25,08,25,12.40
2006,09,25,08,26,12.50
2006,09,25,08,27,12.50
2006,09,25,08,28,12.60
2006,09,25,08,29,12.70
2006,09,25,08,30,12.80
2006,09,25,08,31,12.90
2006,09,25,08,32,13.10
2006,09,25,08,33,13.20
2006,09,25,08,34,13.30
2006,09,25,08,35,13.30
2006,09,25,08,36,13.40
2006,09,25,08,37,13.50
2006,09,25,08,38,13.60
2006,09,25,08,39,13.70
2006,09,25,08,40,13.80
2006,09,25,08,41,13.90
2006,09,25,08,42,13.90
2006,09,25,08,43,13.90
2006,09,25,08,44,13.90
2006,09,25,08,45,14.00
2006,09,25,08,46,14.00
2006,09,25,08,47,14.00
2006,09,25,08,48,14.00
2006,09,25,08,49,14.00
2006,09,25,08,50,14.00
2006,09,25,08,51,14.00
2006,09,25,08,52,14.00
2006,09,25,08,53,14.00
2006,09,25,08,54,13.90
2006,09,25,08,55,13.90
2006,09,25,08,56,13.90
2006,09,25,08,57,13.90
2006,09,25,08,58,13.80
2006,09,25,08,59,13.80
2006,09,25,09,00,13.80
2006,09,25,09,01,13.80
2006,09,25,09,02,13.80
2006,09,25,09,03,13.80
2006,09,25,09,04,13.80
2006,09,25,09,05,13.90
2006,09,25,09,06,13.90
2006,09,25,09,07,13.90
2006,09,25,09,08,13.90
2006,09,25,09,09,13.90
2006,09,25,09,10,13.90
2006,09,25,09,11,13.90
2006,09,25,09,12,13.90
2006,09,25,09,13,13.90
2006,09,25,09,14,13.90
2006,09,25,09,15,14.00
2006,09,25,09,16,14.00
2006,09,25,09,17,14.10
2006,09,25,09,18,14.10
2006,09,25,09,19,14.20
2006,09,25,09,20,14.20
2006,09,25,09,21,14.20
2006,09,25,09,22,14.30
2006,09,25,09,23,14.30
2006,09,25,09,24,14.40
2006,09,25,09,25,14.40
2006,09,25,09,26,14.40
2006,09,25,09,27,14.40
2006,09,25,09,28,14.40
2006,09,25,09,29,14.40
2006,09,25,09,30,14.30
2006,09,25,09,31,14.30
2006,09,25,09,32,14.30
2006,09,25,09,33,14.30
2006,09,25,09,34,14.30
2006,09,25,09,35,14.30
2006,09,25,09,36,14.30
2006,09,25,09,37,14.30
2006,09,25,09,38,14.40
2006,09,25,09,39,14.50
2006,09,25,09,40,14.60
2006,09,25,09,41,14.70
2006,09,25,09,42,14.80
2006,09,25,09,43,14.80
2006,09,25,09,44,14.90
2006,09,25,09,45,15.00
2006,09,25,09,46,15.00
2006,09,25,09,47,15.00
2006,09,25,09,48,15.00
2006,09,25,09,49,15.10
2006,09,25,09,50,15.10
2006,09,25,09,51,15.20
2006,09,25,09,52,15.20
2006,09,25,09,53,15.20
2006,09,25,09,54,15.30
2006,09,25,09,55,15.30
2006,09,25,09,56,15.30
2006,09,25,09,57,15.30
2006,09,25,09,58,15.40
2006,09,25,09,59,15.40
2006,09,25,10,00,15.50
2006,09,25,10,01,15.50
2006,09,25,10,02,15.60
2006,09,25,10,03,15.60
2006,09,25,10,04,15.60
2006,09,25,10,05,15.70
2006,09,25,10,06,15.70
2006,09,25,10,07,15.70
2006,09,25,10,08,15.70
2006,09,25,10,09,15.70
2006,09,25,10,10,15.70
2006,09,25,10,11,15.60
2006,09,25,10,12,15.60
2006,09,25,10,13,15.60
2006,09,25,10,14,15.70
2006,09,25,10,15,15.70
2006,09,25,10,16,15.70
2006,09,25,10,17,15.70
2006,09,25,10,18,15.70
2006,09,25,10,19,15.70
2006,09,25,10,20,15.70
2006,09,25,10,21,15.70
2006,09,25,10,22,15.80
2006,09,25,10,23,15.80
2006,09,25,10,24,15.90
2006,09,25,10,25,16.00
2006,09,25,10,26,16.10
2006,09,25,10,27,16.20
2006,09,25,10,28,16.30
2006,09,25,10,29,16.30
2006,09,25,10,30,16.40
2006,09,25,10,31,16.40
2006,09,25,10,32,16.40
2006,09,25,10,33,16.50
2006,09,25,10,34,16.50
2006,09,25,10,35,16.50
2006,09,25,10,36,16.50
2006,09,25,10,37,16.40
2006,09,25,10,38,16.40
2006,09,25,10,39,16.50
2006,09,25,10,40,16.50
2006,09,25,10,41,16.60
2006,09,25,10,42,16.60
2006,09,25,10,43,16.60
2006,09,25,10,44,16.60
2006,09,25,10,45,16.60
2006,09,25,10,46,16.60
2006,09,25,10,47,16.60
2006,09,25,10,48,16.70
2006,09,25,10,49,16.70
2006,09,25,10,50,16.70
2006,09,25,10,51,16.80
2006,09,25,10,52,16.80
2006,09,25,10,53,16.80
2006,09,25,10,54,16.80
2006,09,25,10,55,16.80
2006,09,25,10,56,16.70
2006,09,25,10,57,16.70
2006,09,25,10,58,16.60
2006,09,25,10,59,16.60
2006,09,25,11,00,16.70
2006,09,25,11,01,16.70
2006,09,25,11,02,16.70
2006,09,25,11,03,16.70
2006,09,25,11,04,16.70
2006,09,25,11,05,16.70
2006,09,25,11,06,16.70
2006,09,25,11,07,16.70
2006,09,25,11,08,16.70
2006,09,25,11,09,16.70
2006,09,25,11,10,16.70
2006,09,25,11,11,16.70
2006,09,25,11,12,16.70
2006,09,25,11,13,16.70
2006,09,25,11,14,16.70
2006,09,25,11,15,16.70
2006,09,25,11,16,16.80
2006,09,25,11,17,16.90
2006,09,25,11,18,16.90
2006,09,25,11,19,16.80
2006,09,25,11,20,16.80
2006,09,25,11,21,16.80
2006,09,25,11,22,16.80
2006,09,25,11,23,16.80
2006,09,25,11,24,16.80
2006,09,25,11,25,16.80
2006,09,25,11,26,16.70
2006,09,25,11,27,16.80
2006,09,25,11,28,16.80
2006,09,25,11,29,16.80
2006,09,25,11,30,16.80
2006,09,25,11,31,16.80
2006,09,25,11,32,16.90
2006,09,25,11,33,16.90
2006,09,25,11,34,17.00
2006,09,25,11,35,17.00
2006,09,25,11,36,17.10
2006,09,25,11,37,17.10
2006,09,25,11,38,17.10
2006,09,25,11,39,17.20
2006,09,25,11,40,17.20
2006,09,25,11,41,17.20
2006,09,25,11,42,17.20
2006,09,25,11,43,17.20
2006,09,25,11,44,17.20
2006,09,25,11,45,17.20
2006,09,25,11,46,17.20
2006,09,25,11,47,17.20
2006,09,25,11,48,17.30
2006,09,25,11,49,17.30
2006,09,25,11,50,17.40
2006,09,25,11,51,17.40
2006,09,25,11,52,17.50
2006,09,25,11,53,17.50
2006,09,25,11,54,17.40
2006,09,25,11,55,17.40
2006,09,25,11,56,17.50
2006,09,25,11,57,17.60
2006,09,25,11,58,17.70
2006,09,25,11,59,17.80
2006,09,25,12,00,17.80
2006,09,25,12,01,17.80
2006,09,25,12,02,17.70
2006,09,25,12,03,17.60
2006,09,25,12,04,17.50
2006,09,25,12,05,17.40
2006,09,25,12,06,17.50
2006,09,25,12,07,17.50
2006,09,25,12,08,17.50
2006,09,25,12,09,17.50
2006,09,25,12,10,17.50
2006,09,25,12,11,17.60
2006,09,25,12,12,17.70
2006,09,25,12,13,17.80
2006,09,25,12,14,17.80
2006,09,25,12,15,17.80
2006,09,25,12,16,17.80
2006,09,25,12,17,17.80
2006,09,25,12,18,17.80
2006,09,25,12,19,17.80
2006,09,25,12,20,17.80
2006,09,25,12,21,17.80
2006,09,25,12,22,17.80
2006,09,25,12,23,17.90
2006,09,25,12,24,17.90
2006,09,25,12,25,18.00
2006,09,25,12,26,18.00
2006,09,25,12,27,18.10
2006,09,25,12,28,18.20
2006,09,25,12,29,18.20
2006,09,25,12,30,18.20
2006,09,25,12,31,18.20
2006,09,25,12,32,18.30
2006,09,25,12,33,18.40
2006,09,25,12,34,18.50
2006,09,25,12,35,18.40
2006,09,25,12,36,18.30
2006,09,25,12,37,18.20
2006,09,25,12,38,18.20
2006,09,25,12,39,18.20
2006,09,25,12,40,18.20
2006,09,25,12,41,18.20
2006,09,25,12,42,18.20
2006,09,25,12,43,18.30
2006,09,25,12,44,18.40
2006,09,25,12,45,18.50
2006,09,25,12,46,18.50
2006,09,25,12,47,18.50
2006,09,25,12,48,18.40
2006,09,25,12,49,18.40
2006,09,25,12,50,18.40
2006,09,25,12,51,18.40
2006,09,25,12,52,18.30
2006,09,25,12,53,18.30
2006,09,25,12,54,18.30
2006,09,25,12,55,18.30
2006,09,25,12,56,18.40
2006,09,25,12,57,18.30
2006,09,25,12,58,18.30
2006,09,25,12,59,18.30
2006,09,25,13,00,18.20
2006,09,25,13,01,18.30
2006,09,25,13,02,18.40
2006,09,25,13,03,18.50
2006,09,25,13,04,18.60
2006,09,25,13,05,18.60
2006,09,25,13,06,18.60
2006,09,25,13,07,18.60
2006,09,25,13,08,18.60
2006,09,25,13,09,18.60
2006,09,25,13,10,18.60
2006,09,25,13,11,18.60
2006,09,25,13,12,18.60
2006,09,25,13,13,18.60
2006,09,25,13,14,18.60
2006,09,25,13,15,18.60
2006,09,25,13,16,18.60
2006,09,25,13,17,18.70
2006,09,25,13,18,18.70
2006,09,25,13,19,18.70
2006,09,25,13,20,18.80
2006,09,25,13,21,18.80
2006,09,25,13,22,18.90
2006,09,25,13,23,18.90
2006,09,25,13,24,18.90
2006,09,25,13,25,18.90
2006,09,25,13,26,19.00
2006,09,25,13,27,19.10
2006,09,25,13,28,19.00
2006,09,25,13,29,18.90
2006,09,25,13,30,18.90
2006,09,25,13,31,18.80
2006,09,25,13,32,18.80
2006,09,25,13,33,18.80
2006,09,25,13,34,18.80
2006,09,25,13,35,18.80
2006,09,25,13,36,18.90
2006,09,25,13,37,19.00
2006,09,25,13,38,19.10
2006,09,25,13,39,19.20
2006,09,25,13,40,19.20
2006,09,25,13,41,19.20
2006,09,25,13,42,19.20
2006,09,25,13,43,19.10
2006,09,25,13,44,19.00
2006,09,25,13,45,18.90
2006,09,25,13,46,18.90
2006,09,25,13,47,19.00
2006,09,25,13,48,19.20
2006,09,25,13,49,19.30
2006,09,25,13,50,19.20
2006,09,25,13,51,19.10
2006,09,25,13,52,19.10
2006,09,25,13,53,19.00
2006,09,25,13,54,19.00
2006,09,25,13,55,19.10
2006,09,25,13,56,19.20
2006,09,25,13,57,19.20
2006,09,25,13,58,19.30
2006,09,25,13,59,19.30
2006,09,25,14,00,19.40
2006,09,25,14,01,19.40
2006,09,25,14,02,19.50
2006,09,25,14,03,19.50
2006,09,25,14,04,19.60
2006,09,25,14,05,19.60
2006,09,25,14,06,19.50
2006,09,25,14,07,19.50
2006,09,25,14,08,19.40
2006,09,25,14,09,19.40
2006,09,25,14,10,19.40
2006,09,25,14,11,19.40
2006,09,25,14,12,19.30
2006,09,25,14,13,19.30
2006,09,25,14,14,19.40
2006,09,25,14,15,19.40
2006,09,25,14,16,19.40
2006,09,25,14,17,19.40
2006,09,25,14,18,19.50
2006,09,25,14,19,19.50
2006,09,25,14,20,19.50
2006,09,25,14,21,19.50
2006,09,25,14,22,19.60
2006,09,25,14,23,19.60
2006,09,25,14,24,19.60
2006,09,25,14,25,19.50
2006,09,25,14,26,19.60
2006,09,25,14,27,19.60
2006,09,25,14,28,19.60
2006,09,25,14,29,19.50
2006,09,25,14,30,19.50
2006,09,25,14,31,19.50
2006,09,25,14,32,19.50
2006,09,25,14,33,19.40
2006,09,25,14,34,19.40
2006,09,25,14,35,19.30
2006,09,25,14,36,19.30
2006,09,25,14,37,19.30
2006,09,25,14,38,19.20
2006,09,25,14,39,19.20
2006,09,25,14,40,19.30
2006,09,25,14,41,19.30
2006,09,25,14,42,19.20
2006,09,25,14,43,19.10
2006,09,25,14,44,19.00
2006,09,25,14,45,19.00
2006,09,25,14,46,19.00
2006,09,25,14,47,19.00
2006,09,25,14,48,19.10
2006,09,25,14,49,19.10
2006,09,25,14,50,19.00
2006,09,25,14,51,18.90
2006,09,25,14,52,19.00
2006,09,25,14,53,19.10
2006,09,25,14,54,19.00
2006,09,25,14,55,19.00
2006,09,25,14,56,19.10
2006,09,25,14,57,19.10
2006,09,25,14,58,19.10
2006,09,25,14,59,19.10
2006,09,25,15,00,19.10
2006,09,25,15,01,19.10
2006,09,25,15,02,19.10
2006,09,25,15,03,19.00
2006,09,25,15,04,18.90
2006,09,25,15,05,18.90
2006,09,25,15,06,18.80
2006,09,25,15,07,18.80
2006,09,25,15,08,18.80
2006,09,25,15,09,18.70
2006,09,25,15,10,18.70
2006,09,25,15,11,18.70
2006,09,25,15,12,18.70
2006,09,25,15,13,18.70
2006,09,25,15,14,18.70
2006,09,25,15,15,18.70
2006,09,25,15,16,18.70
2006,09,25,15,17,18.80
2006,09,25,15,18,18.80
2006,09,25,15,19,18.80
2006,09,25,15,20,18.80
2006,09,25,15,21,18.70
2006,09,25,15,22,18.70
2006,09,25,15,23,18.80
2006,09,25,15,24,18.80
2006,09,25,15,25,18.90
2006,09,25,15,26,18.90
2006,09,25,15,27,18.90
2006,09,25,15,28,19.00
2006,09,25,15,29,19.00
2006,09,25,15,30,19.10
2006,09,25,15,31,19.10
2006,09,25,15,32,19.10
2006,09,25,15,33,19.10
2006,09,25,15,34,19.10
2006,09,25,15,35,19.00
2006,09,25,15,36,19.10
2006,09,25,15,37,19.10
2006,09,25,15,38,19.10
2006,09,25,15,39,19.10
2006,09,25,15,40,19.20
2006,09,25,15,41,19.30
2006,09,25,15,42,19.40
2006,09,25,15,43,19.40
2006,09,25,15,44,19.40
2006,09,25,15,45,19.40
2006,09,25,15,46,19.40
2006,09,25,15,47,19.50
2006,09,25,15,48,19.50
2006,09,25,15,49,19.50
2006,09,25,15,50,19.60
2006,09,25,15,51,19.70
2006,09,25,15,52,19.70
2006,09,25,15,53,19.70
2006,09,25,15,54,19.70
2006,09,25,15,55,19.60
2006,09,25,15,56,19.60
2006,09,25,15,57,19.50
2006,09,25,15,58,19.50
2006,09,25,15,59,19.50
2006,09,25,16,00,19.50
2006,09,25,16,01,19.60
2006,09,25,16,02,19.60
2006,09,25,16,03,19.70
2006,09,25,16,04,19.80
2006,09,25,16,05,19.90
2006,09,25,16,06,20.00
2006,09,25,16,07,20.10
2006,09,25,16,08,20.20
2006,09,25,16,09,20.30
2006,09,25,16,10,20.50
2006,09,25,16,11,20.50
2006,09,25,16,12,20.60
2006,09,25,16,13,20.60
2006,09,25,16,14,20.60
2006,09,25,16,15,20.60
2006,09,25,16,16,20.70
2006,09,25,16,17,20.80
2006,09,25,16,18,20.80
2006,09,25,16,19,20.90
2006,09,25,16,20,20.90
2006,09,25,16,21,21.00
2006,09,25,16,22,21.10
2006,09,25,16,23,21.20
2006,09,25,16,24,21.20
2006,09,25,16,25,21.20
2006,09,25,16,26,21.30
2006,09,25,16,27,21.30
2006,09,25,16,28,21.40
2006,09,25,16,29,21.40
2006,09,25,16,30,21.50
2006,09,25,16,31,21.60
2006,09,25,16,32,21.60
2006,09,25,16,33,21.70
2006,09,25,16,34,21.70
2006,09,25,16,35,21.70
2006,09,25,16,36,21.70
2006,09,25,16,37,21.60
2006,09,25,16,38,21.60
2006,09,25,16,39,21.50
2006,09,25,16,40,21.60
2006,09,25,16,41,21.60
2006,09,25,16,42,21.60
2006,09,25,16,43,21.60
2006,09,25,16,44,21.60
2006,09,25,16,45,21.50
2006,09,25,16,46,21.50
2006,09,25,16,47,21.50
2006,09,25,16,48,21.40
2006,09,25,16,49,21.40
2006,09,25,16,50,21.40
2006,09,25,16,51,21.50
2006,09,25,16,52,21.50
2006,09,25,16,53,21.50
2006,09,25,16,54,21.60
2006,09,25,16,55,21.70
2006,09,25,16,56,21.70
2006,09,25,16,57,21.80
2006,09,25,16,58,21.80
2006,09,25,16,59,21.90
2006,09,25,17,00,21.90
2006,09,25,17,01,21.90
2006,09,25,17,02,22.00
2006,09,25,17,03,22.00
2006,09,25,17,04,22.10
2006,09,25,17,05,22.10
2006,09,25,17,06,22.10
2006,09,25,17,07,22.10
2006,09,25,17,08,22.10
2006,09,25,17,09,22.10
2006,09,25,17,10,22.10
2006,09,25,17,11,22.10
2006,09,25,17,12,22.10
2006,09,25,17,13,22.10
2006,09,25,17,14,22.10
2006,09,25,17,15,22.10
2006,09,25,17,16,22.20
2006,09,25,17,17,22.30
2006,09,25,17,18,22.40
2006,09,25,17,19,22.50
2006,09,25,17,20,22.50
2006,09,25,17,21,22.60
2006,09,25,17,22,22.70